Regional Weather Roundup
Issued by NWS

Home | Current Version | Previous Version | Graphics & Text | Print | Product List | Glossary On
Versions: 1 2 3 4 5 6 7 8 9 10 11 12 13 14 15 16 17 18 19 20 21 22 23 24 25 26 27 28 29 30 31 32 33 34 35 36 37 38 39 40 41 42 43 44 45 46 47 48 49 50
000
ASUS45 KABQ 260010
RWRNM
WEATHER ROUNDUP FOR NEW MEXICO
NATIONAL WEATHER SERVICE ALBUQUERQUE NM
600 PM MDT FRI JUL 25 2014

NOTE: "FAIR" MEANS FEW OR NO CLOUDS BELOW 12,000 FEET AGL WITH NO
       SIGNIFICANT WEATHER OR OBSTRUCTIONS TO VISION.

      THIS PRODUCT IS RELEASED AS TWO VERSIONS.  ONE VERSION NEAR
      THE TOP OF THE HOUR CONTAINING PRELIMINARY DATA FROM ALBUQUERQUE
      AND OTHER STATIONS.  A FINAL VERSION WITH ADDITIONAL DATA IS
      ISSUED ABOUT 10 MINUTES AFTER THE HOUR.

NMZ501-503-504-510>518-260100-
NORTHWEST PLATEAU/NORTHCENTRAL MOUNTAINS

CITY           SKY/WX    TMP DP  RH WIND       PRES   REMARKS
FARMINGTON     MOSUNNY   92  41  17 NW6G18    30.08F
6HR MIN TEMP:  89; 6HR MAX TEMP:  96;

LOS ALAMOS     PTSUNNY   86  43  22 N3        30.24F
SANTA FE       MOSUNNY   89  42  19 N5        30.15F
6HR MIN TEMP:  83; 6HR MAX TEMP:  93;

TAOS           MOSUNNY   86  41  20 SW13      30.22F THUNDER
ANGEL FIRE     FAIR      79  43  28 W12       30.34S

$$
NMZ402-403-502-505>509-260100-
WESTCENTRAL MOUNTAINS/SOUTHWEST MOUNTAINS

CITY           SKY/WX    TMP DP  RH WIND       PRES   REMARKS
GALLUP         MOSUNNY   91  35  13 SW7       30.17F
6HR MIN TEMP:  85; 6HR MAX TEMP:  92;

GRANTS         MOSUNNY   85  42  21 CALM      30.20F
SILVER CITY    SUNNY     93  37  14 S13       30.12F

$$
NMZ407-409-411-412-260100-
SOUTHERN DESERTS

CITY           SKY/WX    TMP DP  RH WIND       PRES   REMARKS
LORDSBURG      FAIR      99  41  13 S9        29.99F
DEMING         MOSUNNY   97  42  15 N5        30.00F
6HR MIN TEMP:  92; 6HR MAX TEMP:  99;

LAS CRUCES     SUNNY     97  36  12 E7        30.03F
HOLLOMAN AFB   SUNNY     98  41  14 NW3       29.97F
ALAMOGORDO     SUNNY     99  41  13 NW7       29.99F
T OR C         SUNNY     96  37  12 S9        30.03F
6HR MIN TEMP:  90; 6HR MAX TEMP:  98;


$$
NMZ519>523-260100-
CENTRAL VALLEYS/CENTRAL HIGHLANDS

CITY           SKY/WX    TMP DP  RH WIND       PRES   REMARKS
ALBUQUERQUE    MOSUNNY   96  42  15 SW14      30.07F
6HR MIN TEMP:  87; 6HR MAX TEMP:  97;

DOUBLE EAGLE   MOSUNNY   93  41  16 SW5       30.12F
MORIARTY ARPT  FAIR      92  34  12 W6        30.16F
6HR MIN TEMP:  87; 6HR MAX TEMP:  94;

CLINES CORNERS SUNNY     89  37  16 W10G18    30.21F
6HR MIN TEMP:  84; 6HR MAX TEMP:  91;

BELEN          FAIR      94  42  16 E7        30.06F
6HR MIN TEMP:  90; 6HR MAX TEMP:  96;

SOCORRO        FAIR      98  36  11 SE9       30.03F
6HR MIN TEMP:  93; 6HR MAX TEMP: 100;


$$
NMZ524>526-539-540-260100-
SOUTHCENTRAL MOUNTAINS

CITY           SKY/WX    TMP DP  RH WIND       PRES   REMARKS
RUIDOSO        MOSUNNY   84  41  21 MISG      30.25F

$$
NMZ527>531-260100-
NORTHEAST HIGHLANDS/NORTHEAST PLAINS

CITY           SKY/WX    TMP DP  RH WIND       PRES   REMARKS
LAS VEGAS      PTSUNNY   88  41  19 VRB3      30.18F
6HR MIN TEMP:  86; 6HR MAX TEMP:  91;

RATON          PTSUNNY   90  40  17 S5        30.10F
6HR MIN TEMP:  87; 6HR MAX TEMP:  95;

CLAYTON        MOSUNNY   99  37  11 S20G25    29.99S
6HR MIN TEMP:  97; 6HR MAX TEMP: 102;


$$
NMZ532>537-260100-
EASTCENTRAL PLAINS

CITY           SKY/WX    TMP DP  RH WIND       PRES   REMARKS
TUCUMCARI      SUNNY    102  41  12 S14G23    29.93F HX  97
6HR MIN TEMP:  98; 6HR MAX TEMP: 105;

CANNON AFB     SUNNY     96  51  21 S13       30.02F
6HR MIN TEMP:  92; 6HR MAX TEMP:  98;

CLOVIS AIRPORT NOT AVBL

$$
NMZ028-029-538-260100-
SOUTHEAST PLAINS

CITY           SKY/WX    TMP DP  RH WIND       PRES   REMARKS
ROSWELL        SUNNY    100  45  15 SE13      29.97F HX  96
6HR MIN TEMP:  97; 6HR MAX TEMP: 102;

ARTESIA        SUNNY     99  46  16 SE12      29.97S HX  95
CARLSBAD       PTSUNNY  100  43  14 SE10G21   29.94F HX  96
6HR MIN TEMP:  96; 6HR MAX TEMP: 102;

HOBBS          SUNNY     95  45  17 SE12      30.01F


$$


USA.gov is the U.S. government's official web portal to all federal, state and local government web resources and services.